Погода в Буштыне

Украина / Закарпатская область     48°03′13″N   23°28′36″E
темп.,
°C
ветер,
м/с
пор.,
м/с
влажн.,
%
обл.,
%
осадки,
мм/ч
давл.,
гПа
погр.,
м
11 мая, вт
вт1100:00+12в22871 0.0 101813
03:00+11в22900 0.0 101819
06:00+9в22863 0.0 101818
09:00+15всв22715 0.0 1017192
12:00+21з11551 0.0 1016773
15:00+23з22550 0.0 10141144
18:00+22зсз22600 0.0 1013824
21:00+16вюв11820 0.0 101211
12 мая, ср
ср1200:00+14вюв22860 0.0 101217
03:00+13в228510 0.0 101123
06:00+11вюв22832 0.0 101024
09:00+17всв22690 0.0 1009269
12:00+21юв11592 0.1 1007692
15:00+22зюз23535 0.6 10061643
18:00+21зюз1262100 1.3 1004839
21:00+15вюв2280100 5.6 100418
13 мая, чт
чт1300:00+13вюв238993 0.7 100440
03:00+12вюв2291100 0.8 100428
06:00+12ююз1192100 0.2 100437
09:00+11ю1297100 1.6 1004164
12:00+12ююз1295100 3.8 1005171
15:00+12юв1294100 8.1 1005155
18:00+12юв2495100 2.8 1004174
21:00+11юв2292100 3.6 100522
14 мая, пт
пт1400:00+11ю2295100 1.0 100545
03:00+10юз2294100 1.5 100660
06:00+10юз1298100 0.6 1007113
09:00+10зюз2498100 2.1 1008420
12:00+10юз269294 1.6 1010572
15:00+12юз468493 2.3 10101029
18:00+14юз367456 0.7 1010918
21:00+10ю228872 1.0 101117
15 мая, сб
сб1500:00+10ююз2289100 0.5 101238
03:00+10вюв1189100 0.7 101211
06:00+9вюв229194 0.0 101317
09:00+11в128898 0.1 1013132
12:00+13ссз118169 0.3 1013426
15:00+16зюз13738 2.4 1011947
18:00+17с11728 0.6 1010768
21:00+12всв11872 0.8 100911